Tekamah, NE

3:45 AM CDT on July 26, 2017 (GMT -0500)
Tekamah

Weather History for KTQE - October, 2011

Change the Weather History Date:

Sunday, October 9, 2011

  Actual Average Record
Temperature  
Mean Temperature 70 °F -  
Max Temperature 81 °F 65 °F 83 °F (1980)
Min Temperature 59 °F 40 °F 17 °F (2000)
Cooling Degree Days 5    
Growing Degree Days 20 (Base 50)    
Moisture  
Dew Point 56 °F    
Average Humidity 69    
Maximum Humidity 93    
Minimum Humidity 31    
Precipitation  
Precipitation 0.00 in - - ()
Sea Level Pressure  
Sea Level Pressure 30.05 in    
Wind  
Wind Speed 7 mph (SSE)    
Max Wind Speed 21 mph    
Max Gust Speed 30 mph    
Visibility 8 miles    
Events Rain    
Averages and records for this station are not official NWS values.
T = Trace of Precipitation, MM = Missing Value Source: NWS Daily Summary

Daily Weather History Graph

Daily Weather History Graph

Search for Another Location

Airport or City:

Trip Planner

Search our weather history database for the weather conditions in past years. The results will help you decide how hot, cold, wet, or windy it might be!

Date:

Astronomy

Oct. 09, 2011 Rise Set
Actual Time 7:29 AM CDT 6:53 PM CDT
Civil Twilight 7:02 AM CDT 7:21 PM CDT
Nautical Twilight 6:29 AM CDT 7:53 PM CDT
Astronomical Twilight 5:57 AM CDT 8:25 PM CDT
Moon 5:31 PM CDT (10/9) 5:14 AM CDT (10/9)
Length of Visible Light 12h 19m
Length of Day
11h 23m
Waxing Gibbous, 95% of the Moon is Illuminated
Oct 9
Waxing Gibbous
Oct 11
Full
Oct 19
Last Quarter
Oct 26
New
Nov 2
First Quarter

Hourly Weather History & Observations

Time (CDT) Temp. Heat Index Dew Point Humidity Pressure Visibility Wind Dir Wind Speed Gust Speed Precip Events Conditions
12:54 AM 64.0 °F - 61.0 °F 90% 30.06 in 5.0 mi SSE 5.8 mph - N/A   Mostly Cloudy
1:54 AM 62.1 °F - 60.1 °F 93% 30.07 in 5.0 mi South 3.5 mph - N/A   Scattered Clouds
2:54 AM 62.1 °F - 60.1 °F 93% 30.09 in 5.0 mi West 3.5 mph - N/A   Overcast
3:54 AM 63.0 °F - 60.1 °F 90% 30.09 in 5.0 mi Calm Calm - N/A   Mostly Cloudy
4:54 AM 61.0 °F - 59.0 °F 93% 30.09 in 5.0 mi ENE 5.8 mph - N/A   Overcast
5:54 AM 61.0 °F - 57.9 °F 90% 30.10 in 6.0 mi East 5.8 mph - N/A   Overcast
6:54 AM 59.0 °F - 54.0 °F 83% 30.10 in 8.0 mi ESE 6.9 mph - N/A   Clear
8:54 AM 61.0 °F - 55.0 °F 81% 30.12 in 8.0 mi ESE 4.6 mph - N/A   Clear
9:54 AM 64.9 °F - 55.9 °F 73% 30.13 in 8.0 mi SSE 8.1 mph - N/A   Clear
10:54 AM 71.1 °F - 57.0 °F 61% 30.12 in 9.0 mi SSE 10.4 mph - N/A   Mostly Cloudy
11:54 AM 73.0 °F - 55.9 °F 55% 30.09 in 9.0 mi SE 11.5 mph - N/A   Mostly Cloudy
12:54 PM 75.0 °F - 57.0 °F 53% 30.08 in 9.0 mi SSE 11.5 mph 18.4 mph N/A   Mostly Cloudy
1:54 PM 79.0 °F - 57.9 °F 48% 30.04 in 10.0 mi SSE 13.8 mph 20.7 mph N/A   Mostly Cloudy
2:54 PM 81.0 °F 81.0 °F 57.0 °F 44% 30.00 in 10.0 mi SSE 17.3 mph 21.9 mph N/A   Clear
3:54 PM 80.1 °F 79.9 °F 53.1 °F 39% 29.98 in 10.0 mi SSE 12.7 mph 29.9 mph N/A   Partly Cloudy
4:54 PM 81.0 °F - 48.0 °F 31% 29.98 in 10.0 mi SSE 20.7 mph 29.9 mph N/A   Clear
6:54 PM 75.0 °F - 48.9 °F 40% 29.98 in 10.0 mi SE 11.5 mph - N/A   Mostly Cloudy
7:54 PM 73.9 °F - 48.9 °F 41% 29.99 in 10.0 mi SE 12.7 mph - N/A   Overcast
8:54 PM 68.0 °F - 59.0 °F 73% 30.01 in 10.0 mi SW 8.1 mph - 0.00 in Rain Light Rain
9:54 PM 64.9 °F - 59.0 °F 81% 30.01 in 10.0 mi South 4.6 mph - 0.00 in   Overcast
10:54 PM 66.0 °F - 59.0 °F 78% 30.02 in 9.0 mi South 4.6 mph - N/A   Overcast
11:54 PM 64.0 °F - 57.9 °F 80% 30.03 in 10.0 mi SSW 3.5 mph - N/A   Mostly Cloudy